Weather observations for the past three days for
St. Paul Island, St. Paul Island Airport
| Date | Time (akdt) | Wind (mph) | Vis. (mi.) | Weather | Sky Cond. | Temperature (ºF) | Relative Humidity | Wind Chill (°F) | Heat Index (°F) | Pressure | Precipitation (in) | ||||||
|---|---|---|---|---|---|---|---|---|---|---|---|---|---|---|---|---|---|
| Air | Dwpt | 6 hour | altimeter (in) | sea level (mb) | 1 hr | 3 hr | 6 hr | ||||||||||
| Max. | Min. | ||||||||||||||||
| 05 | 15:53 | NW 13 | 10.00 | Overcast | SCT019 OVC046 | 39.9 | 30 | 42.1 | 35.1 | 68% | 33 | 30.16 | 1021.2 | ||||
| 05 | 14:53 | NW 14 | 10.00 | Overcast | BKN019 BKN024 OVC048 | 39.9 | 28.9 | 65% | 33 | 30.16 | 1021.3 | ||||||
| 05 | 13:53 | NW 14 | 10.00 | Overcast | SCT018 SCT023 OVC049 | 41 | 30 | 65% | 34 | 30.16 | 1021.3 | ||||||
| 05 | 12:53 | N 15 | 10.00 | Mostly Cloudy | BKN015 BKN022 BKN050 | 39.9 | 30.9 | 70% | 32 | 30.16 | 1021.4 | ||||||
| 05 | 11:53 | NW 13 | 10.00 | Mostly Cloudy | BKN044 | 39.9 | 30 | 68% | 33 | 30.16 | 1021.3 | ||||||
| 05 | 10:53 | N 16 | 10.00 | Overcast | BKN010 OVC044 | 37 | 30 | 76% | 28 | 30.16 | 1021.5 | ||||||
| 05 | 09:53 | NW 12 | 10.00 | Overcast | BKN009 BKN018 OVC048 | 35.1 | 30.9 | 35.1 | 33.1 | 85% | 28 | 30.17 | 1021.6 | ||||
| 05 | 08:53 | N 10 | 10.00 | Overcast | OVC008 | 33.1 | 30.9 | 92% | 26 | 30.16 | 1021.4 | ||||||
| 05 | 07:53 | N 12 | 10.00 | Overcast | OVC008 | 33.1 | 30 | 89% | 25 | 30.15 | 1020.9 | ||||||
| 05 | 06:53 | N 13 | 10.00 | Overcast | OVC009 | 33.1 | 30 | 89% | 25 | 30.13 | 1020.5 | ||||||
| 05 | 05:53 | NW 15 | 10.00 | Overcast | OVC010 | 33.1 | 30 | 89% | 24 | 30.12 | 1020.0 | ||||||
| 05 | 04:53 | N 13 | 10.00 | Overcast | SCT011 BKN020 OVC042 | 33.1 | 30 | 89% | 25 | 30.11 | 1019.8 | ||||||
| 05 | 03:53 | N 12 | 10.00 | Overcast | OVC011 | 33.1 | 28.9 | 34 | 32 | 85% | 25 | 30.12 | 1020.0 | ||||
| 05 | 02:53 | N 18 | 10.00 | Overcast | OVC010 | 33.1 | 28.9 | 85% | 23 | 30.12 | 1020.0 | ||||||
| 05 | 01:53 | N 16 G 23 | 10.00 | Overcast | OVC011 | 33.1 | 30 | 89% | 23 | 30.12 | 1020.0 | ||||||
| 05 | 00:53 | N 16 | 10.00 | Overcast | SCT010 OVC015 | 33.1 | 28.9 | 85% | 23 | 30.12 | 1019.9 | ||||||
| 04 | 23:53 | N 18 | 10.00 | Overcast | BKN010 OVC014 | 33.1 | 30 | 89% | 23 | 30.11 | 1019.7 | ||||||
| 04 | 22:53 | N 18 G 29 | 10.00 | Overcast | OVC010 | 34 | 30 | 85% | 24 | 30.09 | 1019.2 | ||||||
| 04 | 21:53 | N 18 | 10.00 | Overcast | OVC014 | 34 | 30 | 39 | 34 | 85% | 24 | 30.09 | 1019.1 | ||||
| 04 | 20:53 | N 24 G 30 | 10.00 | Overcast and Breezy | OVC009 | 35.1 | 30 | 82% | 24 | 30.09 | 1018.8 | ||||||
| 04 | 19:53 | N 21 G 29 | 10.00 | A Few Clouds and Breezy | FEW012 | 36 | 30 | 79% | 26 | 30.08 | 1018.6 | ||||||
| 04 | 18:53 | N 23 G 30 | 10.00 | Overcast and Breezy | BKN014 OVC028 | 37 | 30 | 76% | 27 | 30.07 | 1018.3 | ||||||
| 04 | 17:53 | N 22 G 29 | 10.00 | Partly Cloudy and Breezy | SCT013 | 39 | 30 | 70% | 29 | 30.07 | 1018.4 | ||||||
| 04 | 16:53 | N 25 G 33 | 10.00 | Mostly Cloudy and Breezy | FEW012 BKN026 | 37.9 | 30 | 73% | 27 | 30.08 | 1018.6 | ||||||
| 04 | 15:53 | N 24 G 35 | 10.00 | Fair and Breezy | CLR | 39 | 28.9 | 39 | 28.9 | 67% | 29 | 30.08 | 1018.6 | ||||
| 04 | 14:53 | N 20 G 30 | 10.00 | Fair | CLR | 39 | 28.9 | 67% | 30 | 30.09 | 1018.9 | ||||||
| 04 | 13:53 | N 20 | 10.00 | Fair | CLR | 37 | 28 | 70% | 27 | 30.1 | 1019.3 | ||||||
| 04 | 12:53 | N 20 | 10.00 | Partly Cloudy | SCT010 | 33.1 | 27 | 78% | 22 | 30.1 | 1019.4 | ||||||
| 04 | 11:53 | N 18 G 26 | 10.00 | Partly Cloudy | SCT009 | 33.1 | 27 | 78% | 23 | 30.1 | 1019.4 | ||||||
| 04 | 10:53 | N 20 G 25 | 10.00 | Mostly Cloudy | BKN009 | 32 | 26.1 | 79% | 21 | 30.11 | 1019.6 | ||||||
| 04 | 09:53 | N 16 | 10.00 | Overcast | OVC008 | 28.9 | 26.1 | 30 | 24.1 | 89% | 18 | 30.11 | 1019.7 | ||||
| 04 | 08:53 | NE 17 G 25 | 10.00 | Overcast | OVC008 | 28 | 25 | 88% | 17 | 30.11 | 1019.7 | ||||||
| 04 | 07:53 | N 14 | 10.00 | Overcast | OVC007 | 26.1 | 24.1 | 92% | 15 | 30.11 | 1019.6 | ||||||
| 04 | 06:53 | NE 14 G 24 | 10.00 | Overcast | OVC008 | 28 | 25 | 88% | 18 | 30.11 | 1019.7 | ||||||
| 04 | 05:53 | N 14 | 10.00 | Mostly Cloudy | BKN011 | 28.9 | 25 | 85% | 19 | 30.11 | 1019.6 | ||||||
| 04 | 04:53 | N 10 | 10.00 | A Few Clouds | FEW011 | 28 | 26.1 | 92% | 19 | 30.11 | 1019.7 | ||||||
| 04 | 03:53 | N 7 | 10.00 | Fair | CLR | 24.1 | 21.9 | 30.9 | 19.9 | 91% | 17 | 30.12 | 1020.0 | ||||
| 04 | 02:53 | N 7 | 10.00 | Fair | CLR | 25 | 24.1 | 96% | 18 | 30.13 | 1020.3 | ||||||
| 04 | 01:53 | N 6 | 10.00 | Mostly Cloudy | BKN014 | 28.9 | 27 | 92% | 23 | 30.14 | 1020.7 | ||||||
| 04 | 00:53 | N 6 | 10.00 | A Few Clouds | FEW011 | 23 | 21 | 92% | 17 | 30.15 | 1021.0 | ||||||
| 03 | 23:53 | N 3 | 10.00 | Fair | CLR | 25 | 23 | 92% | 30.15 | 1021.1 | |||||||
| 03 | 22:53 | Calm | 10.00 | Fair | CLR | 30 | 27 | 88% | 30.15 | 1021.1 | |||||||
| 03 | 21:53 | Calm | 10.00 | A Few Clouds | FEW015 | 30 | 27 | 35.1 | 30 | 88% | 30.15 | 1021.2 | |||||
| 03 | 20:53 | SE 3 | 10.00 | A Few Clouds | FEW016 | 32 | 28 | 85% | 30.16 | 1021.5 | |||||||
| 03 | 19:53 | E 6 | 10.00 | A Few Clouds | FEW017 | 32 | 27 | 82% | 27 | 30.17 | 1021.7 | ||||||
| 03 | 18:53 | SE 7 | 10.00 | Partly Cloudy | SCT011 | 33.1 | 28 | 82% | 28 | 30.18 | 1022.0 | ||||||
| 03 | 17:53 | SE 8 | 10.00 | Fair | CLR | 34 | 28 | 79% | 28 | 30.18 | 1022.0 | ||||||
| 03 | 16:53 | SE 7 | 10.00 | Fair | CLR | 34 | 27 | 76% | 29 | 30.18 | 1022.1 | ||||||
| 03 | 15:53 | SE 10 | 10.00 | Fair | CLR | 34 | 27 | 36 | 30 | 76% | 27 | 30.18 | 1022.2 | ||||
| 03 | 14:53 | E 9 | 10.00 | Fair | CLR | 35.1 | 28 | 76% | 29 | 30.19 | 1022.3 | ||||||
| 03 | 13:53 | E 9 | 10.00 | Fair | CLR | 34 | 27 | 76% | 27 | 30.19 | 1022.5 | ||||||
| 03 | 12:53 | E 8 | 10.00 | Fair | CLR | 33.1 | 27 | 78% | 27 | 30.19 | 1022.6 | ||||||
| 03 | 11:53 | E 8 | 10.00 | A Few Clouds | FEW011 | 32 | 27 | 82% | 25 | 30.2 | 1022.6 | ||||||
| 03 | 10:53 | E 7 | 10.00 | Partly Cloudy | SCT011 | 32 | 26.1 | 79% | 26 | 30.2 | 1022.8 | ||||||
| 03 | 08:53 | NE 5 | 10.00 | Overcast | OVC011 | 27 | 25 | 92% | 22 | 30.18 | 1022.2 | ||||||
| 03 | 07:53 | N 5 | 10.00 | Partly Cloudy | SCT010 | 23 | 21.9 | 96% | 18 | 30.18 | 1022.0 | ||||||
| 03 | 06:53 | NE 5 | 10.00 | A Few Clouds | FEW011 | 23 | 21 | 92% | 18 | 30.17 | 1021.9 | ||||||
| 03 | 05:53 | N 6 | 10.00 | Mostly Cloudy | BKN012 | 25 | 23 | 92% | 19 | 30.17 | 1021.7 | ||||||
| 03 | 04:53 | N 6 | 10.00 | Partly Cloudy | SCT013 | 26.1 | 24.1 | 92% | 20 | 30.17 | 1021.6 | ||||||
| 03 | 02:53 | N 12 | 10.00 | Overcast | OVC011 | 30 | 26.1 | 85% | 21 | 30.17 | 1021.6 | ||||||
| 03 | 01:53 | N 9 | 10.00 | Overcast | OVC011 | 28.9 | 26.1 | 89% | 21 | 30.16 | 1021.4 | ||||||
| 03 | 00:53 | N 7 | 10.00 | Mostly Cloudy | BKN009 | 26.1 | 24.1 | 92% | 19 | 30.15 | 1021.1 | ||||||
| 02 | 23:53 | N 9 | 10.00 | Mostly Cloudy | BKN010 | 28 | 25 | 88% | 20 | 30.13 | 1020.5 | ||||||
| 02 | 22:53 | N 13 | 6.00 | Light Snow Fog/Mist | FEW007 OVC013 | 30 | 27 | 88% | 21 | 30.12 | 1020.0 | ||||||
| 02 | 21:53 | N 14 | 9.00 | Overcast | OVC015 | 30.9 | 26.1 | 34 | 30.9 | 82% | 21 | 30.11 | 1019.6 | ||||
| 02 | 20:53 | N 18 | 5.00 | Light Snow Fog/Mist | OVC013 | 30.9 | 27 | 85% | 20 | 30.09 | 1019.2 | ||||||
| 02 | 19:53 | N 16 G 23 | 10.00 | Overcast | OVC016 | 33.1 | 26.1 | 75% | 23 | 30.07 | 1018.4 | ||||||
| 02 | 18:53 | N 16 | 2.00 | Light Snow Fog/Mist | SCT008 OVC017 | 33.1 | 28.9 | 85% | 23 | 30.06 | 1017.9 | ||||||
| 02 | 17:53 | N 18 | 5.00 | Light Snow | FEW008 OVC013 | 33.1 | 28 | 82% | 23 | 30.04 | 1017.2 | ||||||
| 02 | 16:53 | N 18 | 9.00 | Overcast | SCT010 OVC017 | 34 | 28.9 | 82% | 24 | 30.02 | 1016.6 | ||||||
| Date | Time (akdt) | Wind (mph) | Vis. (mi.) | Weather | Sky Cond. | Air | Dwpt | Max. | Min. | Relative Humidity | Wind Chill (°F) | Heat Index (°F) | altimeter (in) | sea level (mb) | 1 hr | 3 hr | 6 hr |
| 6 hour | |||||||||||||||||
| Temperature (ºF) | Pressure | Precipitation (in) | |||||||||||||||